MUOS-3

Last updated on Sun Oct 06 2024 00:02:40 GMT+0000 (Coordinated Universal Time)

1 40374U 15002A 24279.32312854 -.00000117 00000+0 00000+0 0 9996 2 40374 3.4094 37.2367 0061818 178.7301 259.3177 1.00270367 35377
UTC large
Height (km)
Speed (km/s)
/
Latitude / Longitude
Inclination (degrees)
Orbital Period (minutes)
Azimuth
Elevation
Range (km)
Doppler Factor

Next 0 passes for location: London (51.5072 / 0.1276)

Sorry there are no passes over London.